Date String (YYYY-MM-DD hh:mm:ss) UTC,Instrument flags,Ambient pressure (hPa),Sample flow (lpm),Bypass flow (lpm),Sample temperature (°C),Ambient temperature (°C),ASC tube jacket temperature (°C),LED temperature (°C),Box temperature (°C),Sample RH (%),Span deviation,Mass concentration (μg/m³),Mass concentration (μg/m³),Mass concentration (μg/m³)
DateTimeUTC,F1_M11,P_M11,Q1_M11,Q2_M11,T1_M11,T2_M11,T3_M11,T4_M11,T5_M11,U1_M11,ZSPAN_M11,X0_M11,X2_M11,X1_M11
2022-05-29 11:00:00,,0813.4,4.99,0.00,29.2,28.1,00.0,38.2,31.0,14.8,0000.0,0012.60,0004.48,0002.19
2022-05-29 11:01:00,,0813.5,5.00,0.00,29.2,28.1,00.0,38.2,31.0,14.8,0000.0,0012.09,0004.48,0002.17
2022-05-29 11:02:00,,0813.5,5.01,0.00,29.2,28.1,00.0,38.2,31.0,14.8,0000.0,0011.84,0004.47,0002.15
2022-05-29 11:03:00,,0813.4,4.99,0.00,29.2,28.2,00.0,38.2,31.0,14.9,0000.0,0011.43,0004.41,0002.12
2022-05-29 11:04:00,,0813.4,5.00,0.00,29.2,28.2,00.0,38.2,31.0,14.9,0000.0,0012.03,0004.42,0002.11
2022-05-29 11:05:00,,0813.5,5.00,0.00,29.2,28.2,00.0,38.2,31.1,14.9,0000.0,0012.22,0004.39,0002.11
2022-05-29 11:06:00,,0813.5,5.00,0.00,29.2,28.2,00.0,38.2,31.0,14.9,0000.0,0012.02,0004.36,0002.11
2022-05-29 11:07:00,,0813.5,4.99,0.00,29.2,28.1,00.0,38.2,31.0,15.0,0000.0,0012.19,0004.30,0002.09
2022-05-29 11:08:00,,0813.5,5.00,0.00,29.2,28.1,00.0,38.2,31.0,15.0,0000.0,0012.71,0004.30,0002.08
2022-05-29 11:09:00,,0813.5,5.00,0.00,29.2,28.1,00.0,38.2,31.0,15.0,0000.0,0012.73,0004.26,0002.07
2022-05-29 11:10:00,,0813.4,5.00,0.00,29.2,28.1,00.0,38.2,31.0,15.0,0000.0,0012.76,0004.18,0002.04
2022-05-29 11:11:00,,0813.4,5.01,0.00,29.2,28.1,00.0,38.2,31.0,15.1,0000.0,0012.08,0004.11,0001.99
2022-05-29 11:12:00,,0813.5,5.00,0.00,29.2,28.1,00.0,38.2,31.0,15.1,0000.0,0012.57,0004.08,0001.94
2022-05-29 11:13:00,,0813.5,4.99,0.00,29.2,28.1,00.0,38.2,31.0,15.3,0000.0,0012.69,0003.97,0001.88
2022-05-29 11:14:00,,0813.5,5.00,0.00,29.2,28.0,00.0,38.2,30.9,15.3,0000.0,0012.65,0003.89,0001.84
2022-05-29 11:15:00,,0813.4,5.02,0.00,29.1,28.0,00.0,38.2,30.9,15.3,0000.0,0012.20,0003.76,0001.77
2022-05-29 11:16:00,,0813.5,5.00,0.00,29.1,28.0,00.0,38.2,30.9,15.2,0000.0,0011.68,0003.66,0001.69
2022-05-29 11:17:00,,0813.5,4.99,0.00,29.1,28.0,00.0,38.1,30.9,14.8,0000.0,0011.56,0003.53,0001.60
2022-05-29 11:18:00,,0813.5,5.00,0.00,29.1,27.9,00.0,38.1,30.8,14.8,0000.0,0011.01,0003.41,0001.51
2022-05-29 11:19:00,,0813.5,4.99,0.00,29.1,27.9,00.0,38.1,30.8,14.9,0000.0,0010.10,0003.25,0001.41
2022-05-29 11:20:00,,0813.5,5.00,0.00,29.1,27.9,00.0,38.1,30.8,15.1,0000.0,0009.55,0003.12,0001.32
2022-05-29 11:21:00,,0813.5,5.01,0.00,29.0,27.8,00.0,38.1,30.7,15.1,0000.0,0009.03,0002.95,0001.24
2022-05-29 11:22:00,,0813.5,5.01,0.00,29.0,27.8,00.0,38.1,30.7,15.2,0000.0,0009.10,0002.79,0001.17
2022-05-29 11:23:00,,0813.5,5.01,0.00,29.0,27.8,00.0,38.1,30.7,14.9,0000.0,0008.36,0002.57,0001.10
2022-05-29 11:24:00,,0813.5,5.00,0.00,29.0,27.8,00.0,38.1,30.7,14.8,0000.0,0007.86,0002.35,0001.04
2022-05-29 11:25:00,,0813.4,5.00,0.00,29.0,27.7,00.0,38.1,30.7,14.8,0000.0,0007.98,0002.13,0000.99
2022-05-29 11:26:00,,0813.4,4.99,0.00,28.9,27.7,00.0,38.0,30.7,14.8,0000.0,0007.42,0002.00,0000.94
2022-05-29 11:27:00,,0813.4,5.02,0.00,28.9,27.7,00.0,38.0,30.6,14.7,0000.0,0006.95,0001.84,0000.91
2022-05-29 11:28:00,,0813.5,5.01,0.00,28.9,27.7,00.0,38.0,30.6,14.9,0000.0,0007.58,0001.79,0000.90
2022-05-29 11:29:00,,0813.5,5.00,0.00,28.9,27.7,00.0,38.0,30.7,14.8,0000.0,0007.66,0001.76,0000.89
2022-05-29 11:30:00,,0813.5,5.00,0.00,28.9,27.7,00.0,38.0,30.6,14.7,0000.0,0007.67,0001.77,0000.88
2022-05-29 11:31:00,,0813.5,5.00,0.00,28.9,27.6,00.0,38.0,30.6,14.8,0000.0,0007.82,0001.85,0000.89
2022-05-29 11:32:00,,0813.5,5.00,0.00,28.9,27.6,00.0,38.0,30.6,14.9,0000.0,0007.59,0001.87,0000.89
2022-05-29 11:33:00,,0813.5,4.99,0.00,28.9,27.6,00.0,37.9,30.6,14.7,0000.0,0007.39,0001.90,0000.88
2022-05-29 11:34:00,,0813.5,5.01,0.00,28.8,27.6,00.0,37.9,30.6,14.8,0000.0,0007.68,0001.94,0000.88
2022-05-29 11:35:00,,0813.6,5.01,0.00,28.8,27.6,00.0,37.9,30.6,15.1,0000.0,0007.67,0001.91,0000.88
2022-05-29 11:36:00,,0813.5,5.00,0.00,28.8,27.6,00.0,37.9,30.6,15.3,0000.0,0007.49,0001.99,0000.88
2022-05-29 11:37:00,,0813.5,5.00,0.00,28.8,27.6,00.0,37.9,30.6,15.4,0000.0,0007.78,0002.04,0000.88
2022-05-29 11:38:00,,0813.5,5.00,0.00,28.8,27.6,00.0,37.9,30.6,14.9,0000.0,0008.06,0002.08,0000.89
2022-05-29 11:39:00,,0813.5,5.00,0.00,28.9,27.6,00.0,37.9,30.7,14.8,0000.0,0007.49,0002.16,0000.89
2022-05-29 11:40:00,,0813.5,5.00,0.00,28.9,27.6,00.0,37.9,30.7,14.8,0000.0,0007.79,0002.18,0000.88
2022-05-29 11:41:00,,0813.5,5.01,0.00,28.9,27.6,00.0,37.9,30.7,14.9,0000.0,0008.11,0002.21,0000.89
2022-05-29 11:42:00,,0813.5,5.00,0.00,28.9,27.6,00.0,37.9,30.7,14.9,0000.0,0008.21,0002.17,0000.87
2022-05-29 11:43:00,,0813.5,5.00,0.00,28.9,27.7,00.0,37.9,30.7,14.8,0000.0,0008.35,0002.15,0000.84
2022-05-29 11:44:00,,0813.5,5.00,0.00,28.9,27.7,00.0,37.9,30.7,14.8,0000.0,0008.28,0002.08,0000.83
2022-05-29 11:45:00,,0813.6,5.01,0.00,28.9,27.7,00.0,37.9,30.7,14.8,0000.0,0007.86,0001.99,0000.81
2022-05-29 11:46:00,,0813.5,4.99,0.00,28.9,27.7,00.0,37.9,30.7,14.8,0000.0,0007.60,0001.99,0000.78
2022-05-29 11:47:00,,0813.5,4.99,0.00,28.9,27.7,00.0,37.9,30.7,14.6,0000.0,0007.18,0001.91,0000.74
2022-05-29 11:48:00,,0813.6,4.99,0.00,28.9,27.7,00.0,37.9,30.7,14.8,0000.0,0006.28,0001.81,0000.71
2022-05-29 11:49:00,,0813.6,4.99,0.00,28.9,27.8,00.0,37.9,30.7,14.8,0000.0,0005.73,0001.72,0000.68
2022-05-29 11:50:00,,0813.7,5.01,0.00,28.9,27.8,00.0,37.9,30.8,14.7,0000.0,0005.50,0001.66,0000.66
2022-05-29 11:51:00,,0813.9,5.00,0.00,28.9,27.8,00.0,37.9,30.8,14.9,0000.0,0004.88,0001.56,0000.64
2022-05-29 11:52:00,,0813.8,5.00,0.00,28.9,27.8,00.0,37.9,30.8,14.8,0000.0,0003.94,0001.47,0000.61
2022-05-29 11:53:00,,0813.7,5.00,0.00,28.9,27.8,00.0,37.9,30.8,14.8,0000.0,0003.43,0001.39,0000.59
2022-05-29 11:54:00,,0813.8,5.00,0.00,29.0,27.9,00.0,37.9,30.8,14.8,0000.0,0002.86,0001.30,0000.57
2022-05-29 11:55:00,,0813.6,5.01,0.00,29.0,27.9,00.0,37.9,30.8,14.6,0000.0,0002.66,0001.19,0000.54
2022-05-29 11:56:00,,0814.1,5.00,0.00,29.0,27.9,00.0,37.9,30.8,14.7,0000.0,0003.45,0001.20,0000.54
2022-05-29 11:57:00,,0814.2,4.99,0.00,29.0,27.9,00.0,37.9,30.8,14.9,0000.0,0003.43,0001.23,0000.55
2022-05-29 11:58:00,,0813.9,5.00,0.00,29.0,27.9,00.0,37.9,30.9,14.8,0000.0,0003.89,0001.29,0000.57
2022-05-29 11:59:00,,0814.0,5.00,0.00,29.0,27.9,00.0,37.9,30.9,14.6,0000.0,0004.09,0001.33,0000.59
